Regional Weather Roundup
Issued by NWS

Home | Current Version | Previous Version | Text Only | Print | Product List | Glossary Off
Versions: 1 2 3 4 5 6 7 8 9 10 11 12 13 14 15 16 17 18 19 20 21 22 23 24 25 26 27 28 29 30 31 32 33 34 35 36 37 38 39 40 41 42 43 44 45 46 47 48 49 50

000
ASUS43 KMKX 260500
RWRWI

WISCONSIN REGIONAL WEATHER ROUNDUP
NATIONAL WEATHER SERVICE MILWAUKEE/SULLIVAN WI
1200 AM CDT SAT MAY 26 2018

NOTE: "FAIR" INDICATES FEW OR NO CLOUDS BELOW 12,000 FEET WITH NO
SIGNIFICANT WEATHER AND/OR OBSTRUCTIONS TO VISIBILITY.

WIZ001-002-006>008-014>016-023>028-260600-
NORTHWEST WISCONSIN

CITY           SKY/WX    TMP DP  RH WIND       PRES   REMARKS
SUPERIOR ARPT  FAIR      62  62  98 S3        29.63R
ASHLAND        FAIR      70  63  78 SW12      29.65R
HAYWARD        FAIR      63  62  97 S5        29.70R
SIREN          FAIR      69  56  63 S5        29.70S
CUMBERLAND     FAIR      61  57  88 SW5       29.72S
RICE LAKE      FAIR      64  59  83 CALM      29.73F
CHETEK         FAIR      64  60  85 SW6       29.71F
LADYSMITH      FAIR      65  59  80 CALM      29.73S
EAU CLAIRE     NOT AVBL
MENOMONIE      FAIR      64  61  90 W5        29.71F
NEW RICHMOND   FAIR      66  61  84 CALM      29.71F
OSCEOLA        FAIR      66  61  83 CALM      29.73F
$$

WIZ003>005-009-010-017-018-260600-
NORTH CENTRAL WISCONSIN

CITY           SKY/WX    TMP DP  RH WIND       PRES   REMARKS
MANITOWISH WTR FAIR      62  62 100 CALM      29.71S
ARBOR VITAE    FAIR      66  63  89 CALM      29.72R
WOODRUFF       FAIR      66  63  89 CALM      29.72R
RHINELANDER    FAIR      68  63  84 W5        29.72F
EAGLE RIVER    FAIR      66  61  84 CALM      29.72S
LAND O LAKES   FAIR      67  64  87 CALM      29.73S
PHILLIPS       FAIR      63  63  99 CALM      29.71S
TOMAHAWK       FAIR      62  60  91 CALM      29.72F
MEDFORD        FAIR      60  59  97 CALM      29.73S
MERRILL        FAIR      62  62 100 CALM      29.71F
$$

WIZ029-030-035-036-043>047-260600-
CENTRAL WISCONSIN

CITY           SKY/WX    TMP DP  RH WIND       PRES   REMARKS
WAUSAU         NOT AVBL
MOSINEE        FAIR      64  61  88 SW6       29.72F
MARSHFIELD     FAIR      63  60  90 W5        29.71R
STEVENS POINT  FAIR      66  64  93 CALM      29.72R
WAUPACA        FAIR      73  65  77 CALM      29.71S
WAUTOMA        FAIR      70  64  81 SW7       29.72S
WISC RAPIDS    FAIR      68  63  84 CALM      29.71S
CAMP DOUGLAS   FAIR      68  61  76 W6        29.71F
$$

WIZ011>013-019>022-031-037>040-048>050-260600-
NORTHEAST WISCONSIN

CITY           SKY/WX    TMP DP  RH WIND       PRES   REMARKS
ANTIGO         FAIR      63  61  94 W3        29.74S
SHAWANO        FAIR      71  65  81 CALM      29.70S
OCONTO         CLOUDY    65  60  82 E5        29.70R
STURGEON BAY   CLOUDY    63  60  90 SE7       29.71F
GREEN BAY      FAIR      74  64  71 S7        29.70F
MANITOWOC      NOT AVBL
APPLETON       FAIR      72  59  64 S7        29.70F
CLINTONVILLE   FAIR      70  66  87 SW3       29.69F
OSHKOSH        FAIR      71  61  70 S10       29.71F
$$

WIZ032>034-041-042-053>061-260600-
SOUTHWEST WISCONSIN

CITY           SKY/WX    TMP DP  RH WIND       PRES   REMARKS
LA CROSSE      LGT RAIN  67  62  84 CALM      29.68F
SPARTA         FAIR      64  60  90 S3        29.72F
VIROQUA        FAIR      65  62  90 S8        29.74F
BOSCOBEL       FAIR      68  60  75 S7        29.73F
PRAIRIE DU CHI LGT RAIN  66  60  81 S6        29.80F
PLATTEVILLE    FAIR      67  62  85 SW7       29.75R
$$

WIZ056-057-062-063-064-067-068-260600-
SOUTH CENTRAL WISCONSIN

CITY           SKY/WX    TMP DP  RH WIND       PRES   REMARKS
REEDSBURG      FAIR      70  59  69 W6        29.73F
BARABOO/DELLS  FAIR      74  62  66 NW12G17   29.75R
LONE ROCK      NOT AVBL
MINERAL POINT  FAIR      72  57  60 W12       29.74R
MADISON        FAIR      73  63  70 VRB6      29.73R
MIDDLETON      FAIR      73  64  72 W8        29.72R
WATERTOWN      FAIR      70  65  84 S7        29.73F
MONROE         FAIR      68  59  73 SW8       29.74F
JANESVILLE     FAIR      70  63  78 SW8       29.75F
$$

WIZ051-052-058>065-066-070>072-260600-
SOUTHEAST WISCONSIN

CITY           SKY/WX    TMP DP  RH WIND       PRES   REMARKS
MILWAUKEE      MOCLDY    73  62  68 SW7       29.74F
WAUKESHA       FAIR      68  59  73 S6        29.76F
MILWAUKEE/TIMM FAIR      70  55  60 S3        29.75F
RACINE         MOCLDY    73  63  70 S6        29.77F
BURLINGTON     FAIR      66  61  85 S3        29.76F
KENOSHA        FAIR      74  63  68 SW7       29.76F
FOND DU LAC    FAIR      72  61  68 S9        29.71F
SHEBOYGAN      FAIR      68  60  75 S5        29.72F
WEST BEND      FAIR      70  59  68 S3        29.74F
JUNEAU         FAIR      71  63  75 S5        29.74F
$$

LSZ147-162-260600-
LAKE SUPERIOR

STATION/POSITION TIME  TEMP    WIND        PRES    WAVE
                       AIR SEA DIR/SP/G            HT/PER
                 (UTC) (F)     (DEG/KT/KT) (MB)    (FT/S)
W MID LAKE BUOY  0350   50 37  250/  8/ 10 1003.0R   0
DEVILS ISLAND    0400   72     230/  9/ 10 1002.3F
SAXON HARBOR     0440   74     190/  8/ 12 1003.0S
$$

LMZ867-665-643>646-260600-
LAKE MICHIGAN

STATION/POSITION TIME  TEMP    WIND        PRES    WAVE
                       AIR SEA DIR/SP/G            HT/PER
                 (UTC) (F)     (DEG/KT/KT) (MB)    (FT/S)
N MID LAKE BUOY  0440   48 38  170/  8/ 12  996.3F
NORTHPORT PIER   0441   62     180/  3/  5 1005.4F
KEWAUNEE LAKESHO 0430          220/  7/ 10 1005.3F
SHEBOYGAN LAKESH 0400   68     180/ 14/ 14 1006.4S
PORT WASHINGTON  0440   58     180/  7/  8 1007.8F
ATWATER BUOY     0407   56 48  150/  8/  8 1007.3    1
MILWAUKEE LAKESH 0430   73     210/  6/  8   N/A
S MID LAKE BUOY  0350   58 39  210/ 10/ 10 1008.1F   0
KENOSHA   LAKESH 0400   76                 1007.8
$$

TC  - TEMPERATURE IN CELSIUS
VSB - VISIBILITY IN STATUTE MILES
WCI - WIND CHILL INDEX
HX  - HEAT INDEX





USA.gov is the U.S. government's official web portal to all federal, state and local government web resources and services.